Time,TemperatureF,DewpointF,PressureIn,WindDirection,WindDirectionDegrees,WindSpeedMPH,WindSpeedGustMPH,Humidity,HourlyPrecipIn,Conditions,Clouds,dailyrainin,SoftwareType,DateUTC
2013-01-18 00:02:00,27.0,13.0,30.13,East,90,0.0,1.0,56,0.00,,,0.00,,2013-01-18 07:02:00,
2013-01-18 00:12:00,27.0,13.0,30.13,East,90,0.0,1.0,56,0.00,,,0.00,,2013-01-18 07:12:00,
2013-01-18 00:22:00,27.0,14.0,30.13,North,0,0.0,1.0,58,0.00,,,0.00,,2013-01-18 07:22:00,
2013-01-18 00:32:00,27.0,14.0,30.13,East,91,1.0,1.0,57,0.00,,,0.00,,2013-01-18 07:32:00,
2013-01-18 00:42:00,27.0,14.0,30.13,East,91,1.0,1.0,57,0.00,,,0.00,,2013-01-18 07:42:00,
2013-01-18 00:52:00,26.0,13.0,30.13,ESE,109,1.0,1.0,58,0.00,,,0.00,,2013-01-18 07:52:00,
2013-01-18 01:02:00,26.0,13.0,30.13,East,90,1.0,1.0,58,0.00,,,0.00,,2013-01-18 08:02:00,
2013-01-18 01:12:00,26.0,13.0,30.13,East,90,1.0,1.0,58,0.00,,,0.00,,2013-01-18 08:12:00,
2013-01-18 01:22:00,26.0,14.0,30.13,ESE,113,0.0,1.0,59,0.00,,,0.00,,2013-01-18 08:22:00,
2013-01-18 01:32:00,25.0,13.0,30.13,ESE,113,0.0,0.0,59,0.00,,,0.00,,2013-01-18 08:32:00,
2013-01-18 01:42:00,25.0,13.0,30.13,ESE,113,0.0,0.0,59,0.00,,,0.00,,2013-01-18 08:42:00,
2013-01-18 01:53:00,25.0,13.0,30.13,ESE,112,0.0,1.0,59,0.00,,,0.00,,2013-01-18 08:53:00,
2013-01-18 02:02:00,25.0,13.0,30.13,East,90,1.0,1.0,60,0.00,,,0.00,,2013-01-18 09:02:00,
2013-01-18 02:12:00,25.0,13.0,30.13,East,90,1.0,1.0,60,0.00,,,0.00,,2013-01-18 09:12:00,
2013-01-18 02:22:00,24.0,13.0,30.13,NE,34,0.0,1.0,61,0.00,,,0.00,,2013-01-18 09:22:00,
2013-01-18 02:32:00,24.0,13.0,30.13,ESE,113,0.0,1.0,61,0.00,,,0.00,,2013-01-18 09:32:00,
2013-01-18 02:42:00,24.0,13.0,30.13,ESE,113,0.0,1.0,61,0.00,,,0.00,,2013-01-18 09:42:00,
2013-01-18 02:52:00,24.0,13.0,30.13,SE,134,0.0,1.0,61,0.00,,,0.00,,2013-01-18 09:52:00,
2013-01-18 03:02:00,23.0,12.0,30.13,SE,135,0.0,1.0,62,0.00,,,0.00,,2013-01-18 10:02:00,
2013-01-18 03:12:00,23.0,12.0,30.13,SE,135,0.0,1.0,62,0.00,,,0.00,,2013-01-18 10:12:00,
2013-01-18 03:22:00,23.0,12.0,30.12,ESE,113,0.0,0.0,62,0.00,,,0.00,,2013-01-18 10:22:00,
2013-01-18 03:32:00,23.0,12.0,30.12,ESE,113,0.0,1.0,63,0.00,,,0.00,,2013-01-18 10:32:00,
2013-01-18 03:42:00,23.0,12.0,30.12,ESE,113,0.0,1.0,63,0.00,,,0.00,,2013-01-18 10:42:00,
2013-01-18 03:52:00,23.0,12.0,30.11,ESE,113,0.0,1.0,63,0.00,,,0.00,,2013-01-18 10:52:00,
2013-01-18 04:02:00,22.0,11.0,30.11,ESE,113,0.0,1.0,63,0.00,,,0.00,,2013-01-18 11:02:00,
2013-01-18 04:12:00,22.0,11.0,30.11,ESE,113,0.0,1.0,63,0.00,,,0.00,,2013-01-18 11:12:00,
2013-01-18 04:22:00,22.0,12.0,30.11,ESE,113,0.0,1.0,64,0.00,,,0.00,,2013-01-18 11:22:00,
2013-01-18 04:32:00,22.0,12.0,30.10,NNW,338,0.0,1.0,65,0.00,,,0.00,,2013-01-18 11:32:00,
2013-01-18 04:42:00,22.0,12.0,30.10,NNW,338,0.0,1.0,65,0.00,,,0.00,,2013-01-18 11:42:00,
2013-01-18 04:53:00,21.0,11.0,30.10,SE,135,0.0,1.0,65,0.00,,,0.00,,2013-01-18 11:53:00,
2013-01-18 05:02:00,21.0,11.0,30.10,SSE,152,1.0,1.0,65,0.00,,,0.00,,2013-01-18 12:02:00,
2013-01-18 05:12:00,21.0,11.0,30.10,SSE,152,1.0,1.0,65,0.00,,,0.00,,2013-01-18 12:12:00,
2013-01-18 05:22:00,21.0,11.0,30.10,SE,135,0.0,0.0,65,0.00,,,0.00,,2013-01-18 12:22:00,
2013-01-18 05:33:00,21.0,11.0,30.10,SE,135,0.0,0.0,65,0.00,,,0.00,,2013-01-18 12:33:00,
2013-01-18 05:42:00,21.0,11.0,30.10,SE,135,0.0,0.0,65,0.00,,,0.00,,2013-01-18 12:42:00,
2013-01-18 05:53:00,21.0,11.0,30.10,NE,45,0.0,0.0,66,0.00,,,0.00,,2013-01-18 12:53:00,
2013-01-18 06:03:00,20.0,11.0,30.10,SE,135,0.0,0.0,66,0.00,,,0.00,,2013-01-18 13:03:00,
2013-01-18 06:12:00,20.0,11.0,30.10,SE,135,0.0,0.0,66,0.00,,,0.00,,2013-01-18 13:12:00,
2013-01-18 06:23:00,20.0,11.0,30.10,ESE,113,0.0,0.0,67,0.00,,,0.00,,2013-01-18 13:23:00,
2013-01-18 06:33:00,20.0,11.0,30.10,ESE,113,0.0,1.0,67,0.00,,,0.00,,2013-01-18 13:33:00,
2013-01-18 06:43:00,20.0,11.0,30.10,ESE,113,0.0,1.0,67,0.00,,,0.00,,2013-01-18 13:43:00,
2013-01-18 06:53:00,20.0,11.0,30.10,ESE,113,0.0,1.0,67,0.00,,,0.00,,2013-01-18 13:53:00,
2013-01-18 07:03:00,20.0,11.0,30.10,East,90,0.0,0.0,68,0.00,,,0.00,,2013-01-18 14:03:00,
2013-01-18 07:12:00,20.0,11.0,30.10,East,90,0.0,0.0,68,0.00,,,0.00,,2013-01-18 14:12:00,
2013-01-18 07:22:00,19.0,10.0,30.10,SSW,203,0.0,1.0,68,0.00,,,0.00,,2013-01-18 14:22:00,
2013-01-18 07:33:00,19.0,11.0,30.10,East,90,1.0,1.0,69,0.00,,,0.00,,2013-01-18 14:33:00,
2013-01-18 07:42:00,19.0,11.0,30.10,East,90,1.0,1.0,69,0.00,,,0.00,,2013-01-18 14:42:00,
2013-01-18 07:53:00,20.0,11.0,30.11,ESE,113,0.0,1.0,69,0.00,,,0.00,,2013-01-18 14:53:00,
2013-01-18 08:03:00,20.0,12.0,30.11,SSE,158,0.0,1.0,70,0.00,,,0.00,,2013-01-18 15:03:00,
2013-01-18 08:12:00,20.0,12.0,30.11,SSE,158,0.0,1.0,70,0.00,,,0.00,,2013-01-18 15:12:00,
2013-01-18 08:23:00,21.0,13.0,30.11,SE,135,0.0,0.0,71,0.00,,,0.00,,2013-01-18 15:23:00,
2013-01-18 08:33:00,23.0,15.0,30.12,SSW,203,0.0,0.0,71,0.00,,,0.00,,2013-01-18 15:33:00,
2013-01-18 08:43:00,23.0,15.0,30.12,SSW,203,0.0,0.0,71,0.00,,,0.00,,2013-01-18 15:43:00,
2013-01-18 08:53:00,24.0,15.0,30.12,SW,225,1.0,1.0,69,0.00,,,0.00,,2013-01-18 15:53:00,
2013-01-18 09:03:00,26.0,17.0,30.13,SW,225,0.0,1.0,69,0.00,,,0.00,,2013-01-18 16:03:00,
2013-01-18 09:12:00,26.0,17.0,30.13,SW,225,0.0,1.0,69,0.00,,,0.00,,2013-01-18 16:12:00,
2013-01-18 09:23:00,28.0,18.0,30.13,NW,315,0.0,0.0,65,0.00,,,0.00,,2013-01-18 16:23:00,
2013-01-18 09:33:00,30.0,19.0,30.13,SSE,161,0.0,1.0,63,0.00,,,0.00,,2013-01-18 16:33:00,
2013-01-18 09:42:00,30.0,19.0,30.13,SSE,161,0.0,1.0,63,0.00,,,0.00,,2013-01-18 16:42:00,
2013-01-18 09:53:00,33.0,21.0,30.14,East,87,1.0,1.0,61,0.00,,,0.00,,2013-01-18 16:53:00,
2013-01-18 10:03:00,35.0,22.0,30.14,ESE,104,1.0,2.0,59,0.00,,,0.00,,2013-01-18 17:03:00,
2013-01-18 10:13:00,35.0,22.0,30.14,ESE,104,1.0,2.0,59,0.00,,,0.00,,2013-01-18 17:13:00,
2013-01-18 10:23:00,36.0,21.0,30.14,West,270,1.0,3.0,53,0.00,,,0.00,,2013-01-18 17:23:00,
2013-01-18 10:33:00,37.0,21.0,30.13,West,259,3.0,4.0,51,0.00,,,0.00,,2013-01-18 17:33:00,
2013-01-18 10:42:00,37.0,21.0,30.13,West,259,3.0,4.0,51,0.00,,,0.00,,2013-01-18 17:42:00,
2013-01-18 10:53:00,38.0,21.0,30.13,WNW,292,1.0,3.0,49,0.00,,,0.00,,2013-01-18 17:53:00,
2013-01-18 11:03:00,39.0,20.0,30.12,West,277,2.0,4.0,46,0.00,,,0.00,,2013-01-18 18:03:00,
2013-01-18 11:13:00,39.0,20.0,30.12,West,277,2.0,4.0,46,0.00,,,0.00,,2013-01-18 18:13:00,
2013-01-18 11:23:00,40.0,21.0,30.11,WSW,241,1.0,3.0,47,0.00,,,0.00,,2013-01-18 18:23:00,
2013-01-18 11:33:00,41.0,22.0,30.10,West,270,1.0,3.0,46,0.00,,,0.00,,2013-01-18 18:33:00,
2013-01-18 11:43:00,41.0,22.0,30.10,West,270,1.0,3.0,46,0.00,,,0.00,,2013-01-18 18:43:00,
2013-01-18 11:53:00,43.0,22.0,30.10,NW,320,2.0,4.0,42,0.00,,,0.00,,2013-01-18 18:53:00,
2013-01-18 12:03:00,43.0,22.0,30.09,NW,309,1.0,3.0,42,0.00,,,0.00,,2013-01-18 19:03:00,
2013-01-18 12:12:00,43.0,22.0,30.09,NW,309,1.0,3.0,42,0.00,,,0.00,,2013-01-18 19:12:00,
2013-01-18 12:22:00,45.0,22.0,30.08,WSW,248,3.0,3.0,39,0.00,,,0.00,,2013-01-18 19:22:00,
2013-01-18 12:33:00,45.0,21.0,30.07,West,259,2.0,4.0,38,0.00,,,0.00,,2013-01-18 19:33:00,
2013-01-18 12:42:00,45.0,21.0,30.07,West,259,2.0,4.0,38,0.00,,,0.00,,2013-01-18 19:42:00,
2013-01-18 12:53:00,46.0,21.0,30.06,WNW,297,2.0,4.0,36,0.00,,,0.00,,2013-01-18 19:53:00,
2013-01-18 13:03:00,47.0,23.0,30.05,South,176,1.0,5.0,38,0.00,,,0.00,,2013-01-18 20:03:00,
2013-01-18 13:12:00,47.0,23.0,30.05,South,176,1.0,5.0,38,0.00,,,0.00,,2013-01-18 20:12:00,
2013-01-18 13:23:00,49.0,21.0,30.04,WNW,285,2.0,4.0,33,0.00,,,0.00,,2013-01-18 20:23:00,
2013-01-18 13:33:00,49.0,21.0,30.04,West,264,2.0,3.0,33,0.00,,,0.00,,2013-01-18 20:33:00,
2013-01-18 13:42:00,49.0,21.0,30.04,West,264,2.0,3.0,33,0.00,,,0.00,,2013-01-18 20:42:00,
2013-01-18 13:53:00,49.0,21.0,30.03,West,279,2.0,3.0,33,0.00,,,0.00,,2013-01-18 20:53:00,
2013-01-18 14:03:00,49.0,22.0,30.03,SSW,200,2.0,5.0,34,0.00,,,0.00,,2013-01-18 21:03:00,
2013-01-18 14:12:00,49.0,22.0,30.03,SSW,200,2.0,5.0,34,0.00,,,0.00,,2013-01-18 21:12:00,
2013-01-18 14:23:00,50.0,22.0,30.02,NE,53,1.0,3.0,33,0.00,,,0.00,,2013-01-18 21:23:00,
2013-01-18 14:33:00,50.0,21.0,30.02,SW,221,2.0,4.0,32,0.00,,,0.00,,2013-01-18 21:33:00,
2013-01-18 14:42:00,50.0,21.0,30.02,SW,221,2.0,4.0,32,0.00,,,0.00,,2013-01-18 21:42:00,
2013-01-18 14:53:00,51.0,23.0,30.01,SSW,198,2.0,3.0,33,0.00,,,0.00,,2013-01-18 21:53:00,
2013-01-18 15:03:00,51.0,22.0,30.01,WSW,250,2.0,5.0,32,0.00,,,0.00,,2013-01-18 22:03:00,
2013-01-18 15:12:00,51.0,22.0,30.01,WSW,250,2.0,5.0,32,0.00,,,0.00,,2013-01-18 22:12:00,
2013-01-18 15:22:00,51.0,22.0,30.01,WSW,248,1.0,5.0,32,0.00,,,0.00,,2013-01-18 22:22:00,
2013-01-18 15:32:00,51.0,21.0,30.01,West,274,2.0,3.0,31,0.00,,,0.00,,2013-01-18 22:32:00,
2013-01-18 15:42:00,51.0,21.0,30.01,West,274,2.0,3.0,31,0.00,,,0.00,,2013-01-18 22:42:00,
2013-01-18 15:53:00,50.0,21.0,30.00,NW,311,1.0,3.0,31,0.00,,,0.00,,2013-01-18 22:53:00,
2013-01-18 16:02:00,50.0,21.0,30.00,SSE,161,2.0,3.0,32,0.00,,,0.00,,2013-01-18 23:02:00,
2013-01-18 16:12:00,50.0,21.0,30.00,SSE,161,2.0,3.0,32,0.00,,,0.00,,2013-01-18 23:12:00,
2013-01-18 16:22:00,50.0,21.0,30.00,SSE,151,1.0,3.0,32,0.00,,,0.00,,2013-01-18 23:22:00,
2013-01-18 16:32:00,50.0,21.0,30.00,WSW,248,1.0,3.0,32,0.00,,,0.00,,2013-01-18 23:32:00,
2013-01-18 16:42:00,50.0,21.0,30.00,WSW,248,1.0,3.0,32,0.00,,,0.00,,2013-01-18 23:42:00,
2013-01-18 16:53:00,50.0,21.0,29.99,South,180,1.0,3.0,32,0.00,,,0.00,,2013-01-18 23:53:00,
2013-01-18 17:02:00,49.0,20.0,29.99,ESE,113,0.0,1.0,32,0.00,,,0.00,,2013-01-19 00:02:00,
2013-01-18 17:12:00,49.0,20.0,29.99,ESE,113,0.0,1.0,32,0.00,,,0.00,,2013-01-19 00:12:00,
2013-01-18 17:22:00,49.0,21.0,30.00,SSE,147,1.0,2.0,33,0.00,,,0.00,,2013-01-19 00:22:00,
2013-01-18 17:32:00,48.0,20.0,29.99,SSE,158,1.0,2.0,33,0.00,,,0.00,,2013-01-19 00:32:00,
2013-01-18 17:42:00,48.0,20.0,29.99,SSE,158,1.0,2.0,33,0.00,,,0.00,,2013-01-19 00:42:00,
2013-01-18 17:53:00,47.0,19.0,30.00,SSE,158,0.0,1.0,33,0.00,,,0.00,,2013-01-19 00:53:00,
2013-01-18 18:02:00,46.0,19.0,30.00,SE,135,0.0,0.0,33,0.00,,,0.00,,2013-01-19 01:02:00,
2013-01-18 18:12:00,46.0,19.0,30.00,SE,135,0.0,0.0,33,0.00,,,0.00,,2013-01-19 01:12:00,
2013-01-18 18:22:00,45.0,19.0,30.00,East,90,1.0,1.0,35,0.00,,,0.00,,2013-01-19 01:22:00,
2013-01-18 18:32:00,43.0,18.0,30.00,East,91,1.0,1.0,36,0.00,,,0.00,,2013-01-19 01:32:00,
2013-01-18 18:42:00,43.0,18.0,30.00,East,91,1.0,1.0,36,0.00,,,0.00,,2013-01-19 01:42:00,
2013-01-18 18:53:00,42.0,18.0,30.00,East,90,1.0,1.0,37,0.00,,,0.00,,2013-01-19 01:53:00,
2013-01-18 19:02:00,41.0,18.0,30.01,East,90,1.0,2.0,39,0.00,,,0.00,,2013-01-19 02:02:00,
2013-01-18 19:12:00,41.0,18.0,30.01,East,90,1.0,2.0,39,0.00,,,0.00,,2013-01-19 02:12:00,
2013-01-18 19:22:00,40.0,18.0,30.01,East,94,1.0,2.0,40,0.00,,,0.00,,2013-01-19 02:22:00,
2013-01-18 19:33:00,39.0,17.0,30.02,East,90,1.0,1.0,41,0.00,,,0.00,,2013-01-19 02:33:00,
2013-01-18 19:42:00,39.0,17.0,30.02,East,90,1.0,1.0,41,0.00,,,0.00,,2013-01-19 02:42:00,
2013-01-18 19:53:00,38.0,17.0,30.02,East,90,1.0,1.0,42,0.00,,,0.00,,2013-01-19 02:53:00,
2013-01-18 20:02:00,37.0,17.0,30.01,East,92,2.0,2.0,43,0.00,,,0.00,,2013-01-19 03:02:00,
2013-01-18 20:12:00,37.0,17.0,30.01,East,92,2.0,2.0,43,0.00,,,0.00,,2013-01-19 03:12:00,
2013-01-18 20:22:00,36.0,16.0,30.01,East,90,1.0,1.0,44,0.00,,,0.00,,2013-01-19 03:22:00,
2013-01-18 20:32:00,36.0,16.0,30.01,NE,45,1.0,1.0,44,0.00,,,0.00,,2013-01-19 03:32:00,
2013-01-18 20:43:00,36.0,16.0,30.01,NE,45,1.0,1.0,44,0.00,,,0.00,,2013-01-19 03:43:00,
2013-01-18 20:52:00,35.0,16.0,30.02,East,90,1.0,2.0,45,0.00,,,0.00,,2013-01-19 03:52:00,
2013-01-18 21:02:00,35.0,16.0,30.02,East,92,1.0,1.0,45,0.00,,,0.00,,2013-01-19 04:02:00,
2013-01-18 21:12:00,35.0,16.0,30.02,East,92,1.0,1.0,45,0.00,,,0.00,,2013-01-19 04:12:00,
2013-01-18 21:22:00,34.0,15.0,30.02,ESE,113,1.0,1.0,46,0.00,,,0.00,,2013-01-19 04:22:00,
2013-01-18 21:32:00,33.0,15.0,30.02,ESE,102,0.0,1.0,47,0.00,,,0.00,,2013-01-19 04:32:00,
2013-01-18 21:42:00,33.0,15.0,30.02,ESE,102,0.0,1.0,47,0.00,,,0.00,,2013-01-19 04:42:00,
2013-01-18 21:53:00,33.0,15.0,30.02,East,90,2.0,3.0,48,0.00,,,0.00,,2013-01-19 04:53:00,
2013-01-18 22:03:00,32.0,15.0,30.02,ENE,73,1.0,1.0,49,0.00,,,0.00,,2013-01-19 05:03:00,
2013-01-18 22:12:00,32.0,15.0,30.02,ENE,73,1.0,1.0,49,0.00,,,0.00,,2013-01-19 05:12:00,
2013-01-18 22:22:00,32.0,15.0,30.02,NNE,26,1.0,3.0,50,0.00,,,0.00,,2013-01-19 05:22:00,
2013-01-18 22:32:00,32.0,15.0,30.02,NE,48,0.0,1.0,50,0.00,,,0.00,,2013-01-19 05:32:00,
2013-01-18 22:42:00,32.0,15.0,30.02,NE,48,0.0,1.0,50,0.00,,,0.00,,2013-01-19 05:42:00,
2013-01-18 22:53:00,31.0,15.0,30.02,East,90,1.0,1.0,51,0.00,,,0.00,,2013-01-19 05:53:00,
2013-01-18 23:02:00,31.0,15.0,30.02,ENE,65,1.0,1.0,52,0.00,,,0.00,,2013-01-19 06:02:00,
2013-01-18 23:12:00,31.0,15.0,30.02,ENE,65,1.0,1.0,52,0.00,,,0.00,,2013-01-19 06:12:00,
2013-01-18 23:22:00,30.0,15.0,30.02,NE,45,0.0,1.0,52,0.00,,,0.00,,2013-01-19 06:22:00,
2013-01-18 23:32:00,30.0,15.0,30.02,SE,135,0.0,1.0,52,0.00,,,0.00,,2013-01-19 06:32:00,
2013-01-18 23:43:00,30.0,15.0,30.02,SE,135,0.0,1.0,52,0.00,,,0.00,,2013-01-19 06:43:00,
2013-01-18 23:53:00,29.0,14.0,30.02,ENE,68,0.0,1.0,53,0.00,,,0.00,,2013-01-19 06:53:00,